Simultaneous Nadir Overpasses (SNOs) Predictions

Prediction of SNOs between GOES-15 and FY3D Satellite Orbit:

Table of predicted SNOs for the next 14.0 days since TLE Epoch: 11/16/2019
Index Date Time (GOES-15) GOES-15 Lat,Lon FY3D Lat,Lon Distance(km) Time Diff (sec)
1 11/17/2019 10:13:05 0.07,-128.53 0.70,-131.25 311.32 80
2 11/18/2019 09:56:50 0.08,-128.52 -0.31,-126.68 209.54 80
3 11/19/2019 22:15:50 -0.05,-128.47 -0.82,-131.92 393.40 80
4 11/20/2019 21:59:35 -0.06,-128.46 0.20,-127.35 127.40 80
5 11/22/2019 10:18:27 0.04,-128.49 0.93,-132.56 463.44 80
6 11/23/2019 10:02:10 0.05,-128.48 -0.03,-127.97 57.18 80
7 11/25/2019 22:02:14 -0.05,-128.41 -0.13,-128.63 26.22 80
8 11/26/2019 21:45:59 -0.06,-128.40 0.89,-124.06 494.21 80
9 11/28/2019 10:04:51 0.04,-128.41 0.24,-129.27 97.62 80
10 11/29/2019 09:48:36 0.05,-128.40 -0.77,-124.69 422.18 80




NCC Satellite Simultaneous Nadir Overpasses (SNOs) Prediction Service
